COSMOS 2251 DEB, 33821

Orbit data source: Space-Track

COSMOS 2251 DEB, 33821 is space debris in LEO originally from a launch on Wed, 16 Jun 1993 UTC launched from the Plesetsk Missile And Space Complex (PKMTR). The debris from Iridium 33, an American commercial communications satellite, has been tracked extensively since its accidental collision with the defunct Russian satellite Cosmos 2251 in 2009. This event, occurring at high speed in low Earth orbit (LEO), generated thousands of pieces of space debris, significantly increasing the risk of further collisions. The Iridium 33 debris cloud has impacted space traffic management and orbital debris mitigation strategies, making it a subject of ongoing study in space situational awareness.

Loading next visibility...
Identifier
33821, 1993-036BN
Orbit
LEO
Country
Flag of CISCIS
Related business
Manufacturer
Unknown
Mission
Spacecraft
Bus & Motor
Unknown
Mass
Unknown
Launch date (UTC)
1993-06-16 (33 years ago)
Launch vehicle
Unknown
Launch site
Plesetsk Missile And Space Complex (PKMTR)
Object type
Payload
Rocket body
Debris
Shape & HBR
Unknown shape, 0.2 m
Radar Cross Section
Small (<0.1 m²)

Expand to show TLE details & history
Last TLE update: 6 hours ago

TLE from 6 hours ago
0 COSMOS 2251 DEB
1 33821U 93036BN  25354.09954567  .00022670  00000-0  85563-3 0  9999
2 33821  74.0299 127.2720 0050233 158.5982 201.7335 15.25744458751135
Epoch: 2025-12-20T02:23Z
TLE epoch observation values (Epoch: 2025-12-20T02:23:20.745Z)
Latitude
-0.00008°
Longitude
2.50433°
Altitude
523.34 km
Speed
7.584 km/s
True Right ascension
08h 29m 05s
True Declination
0° 00' 00"
Sunlit
Object was in full shadow at epoch
Visualization orbit readout
Latitude
Unknown
Longitude
Unknown
Altitude
Unknown
Speed
Unknown
Apparent Right ascension
Unknown
Apparent Declination
Unknown
Sunlit
N/A
Visualization observer readout
Local Sidereal Time
07:08:28
Azimuth
Unknown
Elevation
Unknown
Doppler factor
Unknown
Orbital elements
Apogee altitude
520.558 km
Perigee altitude
451.596 km
Semi-major axis
6,864.214 km
Eccentricity
0.00502
Inclination
74.0299°
RAAN
127.272°
Arg. of periapsis
158.5982°
True anomaly
201.52159°
Mean anomaly
201.7335°
Eccentric anomaly
201.62742°
Mean motion
3.81643 °/min
Orbital period
94.33 mins
BSTAR
0.00085563
Loading maneuver chart data...
Computing Atmospheric mass density...

Documentation

Showing up to 5 results
|